Weather History for Wichita, KS

Change the Weather History Date:

Tuesday, March 5, 2013

  Actual Average Record
Temperature  
Mean Temperature 36 °F 43 °F  
Max Temperature 44 °F 54 °F 85 °F (2009)
Min Temperature 27 °F 32 °F 3 °F (1960)
Degree Days  
Heating Degree Days 29 22  
Month to date heating degree days 149 113  
Since 1 July heating degree days 3420 3753  
Cooling Degree Days 0 0  
Month to date cooling degree days 0 0  
Year to date cooling degree days 0 0  
Moisture  
Dew Point 19 °F    
Average Humidity 66    
Maximum Humidity 92    
Minimum Humidity 39    
Precipitation  
Precipitation 0.00 in 0.08 in 1.67 in (1892)
Month to date precipitation 0.04 0.34  
Year to date precipitation 3.06 2.35  
Snow  
Snow 0.00 in 0.10 in 4.80 in (1943)
Month to date snowfall 0.0 0.4  
Since 1 July snowfall 24.5 12.8  
Snow Depth 0.00 in    
Sea Level Pressure  
Sea Level Pressure 30.33 in    
Wind  
Wind Speed 18 mph (NNW)    
Max Wind Speed 31 mph    
Max Gust Speed 41 mph    
Visibility 10 miles    
Events      
T = Trace of Precipitation, MM = Missing Value Source: NWS Daily Summary

Daily Weather History Graph

Daily Weather History Graph

Search for Another Location

Airport:

Trip Planner

Search our weather history database for the weather conditions in past years. The results will help you decide how hot, cold, wet, or windy it might be!

Date:

Astronomy

Mar. 05, 2013 Rise Set
Actual Time 6:55 AM CST 6:27 PM CST
Civil Twilight 6:28 AM CST 6:53 PM CST
Nautical Twilight 5:58 AM CST 7:24 PM CST
Astronomical Twilight 5:28 AM CST 7:54 PM CST
Moon 2:03 AM CST (3/5) 12:13 PM CST (3/5)
Length of Visible Light 12h 24m
Length of Day
11h 32m
Last Quarter, 40% of the Moon is Illuminated
Mar 5
Last Quarter
Mar 11
New
Mar 19
First Quarter
Mar 27
Full
Apr 2
Last Quarter

Hourly Weather History & Observations

Time (CST) Temp. Windchill Dew Point Humidity Pressure Visibility Wind Dir Wind Speed Gust Speed Precip Events Conditions
1:53 AM 37.0 °F 26.2 °F 25.0 °F 62% 30.12 in 10.0 mi NNW 21.9 mph 28.8 mph N/A   Overcast
2:53 AM 35.1 °F 23.5 °F 19.0 °F 52% 30.18 in 10.0 mi NNW 21.9 mph 36.8 mph N/A   Mostly Cloudy
3:53 AM 33.1 °F 21.2 °F 18.0 °F 54% 30.22 in 10.0 mi NNW 20.7 mph 26.5 mph N/A   Partly Cloudy
4:53 AM 30.9 °F 18.1 °F 16.0 °F 54% 30.25 in 10.0 mi NNW 21.9 mph 31.1 mph N/A   Clear
5:53 AM 30.0 °F 18.3 °F 17.1 °F 59% 30.27 in 10.0 mi NNW 17.3 mph - N/A   Clear
6:53 AM 28.4 °F 18.0 °F 17.6 °F 64% 30.25 in 10.0 mi NW 12.7 mph - N/A   Clear
7:53 AM 30.9 °F 19.4 °F 18.0 °F 59% 30.30 in 10.0 mi NW 17.3 mph - N/A   Clear
8:53 AM 33.1 °F 20.1 °F 17.1 °F 52% 30.33 in 10.0 mi NNW 25.3 mph 35.7 mph N/A   Partly Cloudy
9:53 AM 35.1 °F 23.3 °F 18.0 °F 50% 30.34 in 10.0 mi NNW 23.0 mph 38.0 mph N/A   Partly Cloudy
10:53 AM 37.0 °F 25.1 °F 17.1 °F 44% 30.35 in 10.0 mi NNW 26.5 mph 34.5 mph N/A   Partly Cloudy
11:53 AM 39.0 °F 28.0 °F 18.0 °F 43% 30.35 in 10.0 mi NNW 25.3 mph 33.4 mph N/A   Clear
12:53 PM 41.0 °F 30.9 °F 19.9 °F 43% 30.35 in 10.0 mi NW 24.2 mph 31.1 mph N/A   Clear
1:53 PM 42.1 °F 32.6 °F 19.9 °F 41% 30.33 in 10.0 mi NW 23.0 mph 28.8 mph N/A   Clear
2:53 PM 43.0 °F 34.5 °F 21.0 °F 42% 30.34 in 10.0 mi NW 19.6 mph 25.3 mph N/A   Clear
3:53 PM 43.0 °F 34.2 °F 19.9 °F 40% 30.33 in 10.0 mi NNW 20.7 mph 29.9 mph N/A   Clear
4:53 PM 43.0 °F 34.2 °F 19.9 °F 40% 30.33 in 10.0 mi North 20.7 mph 28.8 mph N/A   Clear
5:53 PM 41.0 °F 32.2 °F 19.9 °F 43% 30.34 in 10.0 mi NNW 18.4 mph - N/A   Clear
6:53 PM 37.9 °F 29.6 °F 19.9 °F 48% 30.38 in 10.0 mi NNW 13.8 mph - N/A   Clear
7:53 PM 36.0 °F 28.0 °F 21.0 °F 55% 30.38 in 10.0 mi NNW 11.5 mph - N/A   Clear
8:53 PM 34.0 °F 27.2 °F 21.0 °F 59% 30.39 in 10.0 mi NW 8.1 mph - N/A   Clear
9:53 PM 30.0 °F 22.4 °F 21.0 °F 69% 30.42 in 10.0 mi NNW 8.1 mph - N/A   Clear
10:53 PM 28.9 °F 23.9 °F 21.0 °F 72% 30.43 in 10.0 mi NNW 4.6 mph - N/A   Clear
11:53 PM 27.0 °F 21.6 °F 19.9 °F 75% 30.43 in 10.0 mi NW 4.6 mph - N/A   Clear